Miscellaneous Local Product
Issued by NWS North Platte, NE

Home | Current Version | Previous Version | Graphics & Text | Print | Product List | Glossary On
Versions: 1 2 3 4 5 6 7 8 9 10 11 12 13 14 15 16 17 18 19 20 21 22 23 24 25 26 27 28 29 30 31 32 33 34 35 36 37 38 39 40 41 42 43 44 45 46 47 48 49 50
000
AXUS43 KLBF 201210
MISLBF


WESTERN AND NORTH CENTRAL NEBRASKA HOURLY WEATHER ROUNDUP
NATIONAL WEATHER SERVICE NORTH PLATTE NE
700 AM CDT WED SEP 20 2017

NOTE: "FAIR" INDICATES FEW OR NO CLOUDS BELOW 12,000 FEET WITH NO
SIGNIFICANT WEATHER AND/OR OBSTRUCTIONS TO VISIBILITY.

NOTE: STATIONS NOT REPORTING VARIABLES SUCH AS SKY/WEATHER OR
PRESSURE ARE PROVIDED BY RAWS AND APRS NETWORKS AND ARE NOT UNDER
NATIONAL WEATHER SERVICE QUALITY CONTROL.

...OBSERVATIONS IN AND NEAR THE EASTERN PANHANDLE OF NEBRASKA...

CITY           SKY/WX    TMP DP  RH WIND       PRES   REMARKS
GORDON         FAIR      46  33  61 W6        29.86S
CHADRON        CLEAR     40  32  73 SW6       29.88R
ALLIANCE       CLOUDY    48  32  53 NW13      29.89R
SIDNEY         CLEAR     50  30  46 W6        29.93R
CRESCENT LAKE    N/A     54  31  40 NW10        N/A
$$

...OBSERVATIONS IN NORTHERN NEBRASKA AND FAR SOUTHERN SOUTH DAKOTA...

CITY           SKY/WX    TMP DP  RH WIND       PRES   REMARKS
WINNER         FAIR      49  44  83 S7        29.84R
VALENTINE      CLOUDY    50  47  89 S3        29.86R
THEDFORD       CLOUDY    47  42  82 CALM      29.87S
AINSWORTH      CLOUDY    49  47  93 W5        29.87R
O`NEILL        CLEAR     49  48  97 W7        29.84R
ORD            CLEAR     49  44  83 NW8       29.85R
BROKEN BOW     CLEAR     45  41  86 CALM      29.87R
VALENTINE NWR    N/A     48  46  94 CALM        N/A
HALSEY           N/A     46  40  80 CALM        N/A
BUTTE            N/A     48  45  91 CALM        N/A
CHAMBERS         N/A     50  46  85 CALM        N/A
EWING            N/A     50  47  90 NW5         N/A
$$

...OBSERVATIONS IN SOUTHWEST NEBRASKA AND FAR NORTHEAST COLORADO...

CITY           SKY/WX    TMP DP  RH WIND       PRES   REMARKS
WRAY           FAIR      37  32  81 W6        29.96R WCI  33
IMPERIAL       CLOUDY    41  34  76 MISG      29.94R
OGALLALA       CLOUDY    39  36  88 W6        29.91R WCI  35
NORTH PLATTE   CLEAR     39  36  89 CALM      29.90R
MCCOOK         CLEAR     43  36  76 NW9       29.90R
LEXINGTON      CLEAR     45  42  89 NW6       29.87R
STAPLETON        N/A     43  38  82 CALM        N/A
GOTHENBURG       N/A     48  38  68 NW5         N/A
CALLAWAY         N/A     46  41  83 NW6         N/A
$$

...OBSERVATIONS IN CENTRAL LINCOLN COUNTY AREA...

CITY           SKY/WX    TMP DP  RH WIND       PRES   REMARKS
N.P. AIRPORT   CLEAR     39  36  89 CALM      29.90R
N.P. DOWNTOWN    N/A     44  39  82 CALM        N/A
N.P. SOUTHEAST   N/A     43  37  80 CALM        N/A
N.P. HILLCREST   N/A     45  37  73 CALM        N/A
$$

...SOME OBSERVATIONS FROM AROUND THE REGION...

CITY           SKY/WX    TMP DP  RH WIND       PRES   REMARKS
DENVER         CLOUDY    43  31  62 SE15      29.97R
LIMON          CLOUDY    38  30  73 W7        30.01R WCI  33
ASPEN          CLOUDY    44  32  62 CALM      30.05R
LARAMIE        CLOUDY    35  25  66 SW12      29.99F WCI  27
CASPER         CLEAR     38  26  62 SW12      29.91S WCI  30
CHEYENNE       CLOUDY    44  28  53 W15       29.97S
SCOTTSBLUFF    CLOUDY    51  31  46 W7        29.92R
GRAND ISLAND   CLEAR     53  50  89 NW8       29.83R
OMAHA          CLOUDY    68  60  75 N9        29.70R
SIOUX FALLS    PTCLDY    55  53  93 NW7       29.76R
PIERRE         CLEAR     46  41  82 SW6       29.80R
RAPID CITY     CLEAR     37  30  75 VRB3      29.79
BISMARCK       CLEAR     45  41  86 SW7       29.69R
KANSAS CITY    PTCLDY    72  70  93 S12       29.76R
HILL CITY      CLEAR     53  37  54 NW9       29.86R
WICHITA        PTCLDY    69  64  84 S9        29.75R
DODGE CITY     CLOUDY    54  35  48 N14       29.85R
OKLAHOMA CITY  PTCLDY    72  67  84 S14       29.79S
DALLAS         PTCLDY    78  72  81 S12       29.85R
AMARILLO       CLOUDY    55  43  63 N9        29.89R
$$




USA.gov is the U.S. government's official web portal to all federal, state and local government web resources and services.